SCP
1 1 1 1 1 0 -0 -0 -0 -0 -0 -0 -0 -0 -0 -0 -0 -0 -0 -0 -0 -0 -0 -0 -0 -0 -0 -0 -0 -0 -0 -0 -0 -0 -0 -0 -0 -0 -0 -0 -0 -0 -0
1 1 1 1 1 1 0 0 0 0 -0 -0 -0 -0 -0 -0 -0 -0 -0 -0 -0 -0 -0 -0 -0 -0 -0 -0 -0 -0 -0 -0 -0 -0 -0 -0 -0 -0 -0 -0 -0 -0 -0
1 1 1 1 1 1 0 0 0 0 0 0 -0 -0 -0 -0 -0 -0 -0 -0 -0 -0 -0 -0 -0 -0 -0 -0 -0 -0 -0 -0 0 0 0 0 0 -0 -0 -0 -0 -0 -0
2 1 1 1 1 1 1 0 0 0 0 0 0 -0 -0 -0 -0 -0 -0 -0 -0 -0 -0 -0 -0 -0 -0 -0 -0 -0 -0 -0 0 -0 0 0 -0 -0 -0 -0 -0 -0 -0
1 1 1 2 1 2 1 1 0 0 0 0 0 -0 -0 -0 -0 -0 -0 -0 -0 -0 -0 -0 -0 -0 -0 -0 -0 -0 -0 -0 -0 -0 -0 -0 0 -0 -0 -0 -0 -0 -0
1 1 1 2 1 1 1 1 1 0 0 0 0 0 -0 -0 -0 -0 -0 -0 -0 -0 -0 -0 -0 -0 -0 -0 0 -0 -0 -0 0 -0 -0 -0 0 -0 -0 -0 -0 -0 -0
1 1 1 2 1 1 1 1 1 1 0 0 0 0 0 -0 -0 -0 -0 -0 -0 -0 -0 -0 -0 -0 0 0 0 0 -0 -0 -0 -0 0 0 0 -0 -0 -0 -0 -0 -0
2 1 1 1 1 1 1 1 1 1 1 0 0 0 0 -0 -0 -0 -0 -0 -0 -0 -0 -0 -0 -0 -0 0 0 0 -0 -0 -0 -0 0 0 0 -0 -0 -0 -0 0 0
3 1 1 2 1 1 1 1 1 1 1 0 0 0 0 0 0 -0 -0 -0 -0 -0 -0 -0 -0 -0 -0 0 -0 0 0 0 0 0 0 -0 0 -0 -0 0 0 0 0
2 1 1 2 1 1 1 1 1 1 1 0 0 0 0 0 0 0 0 0 0 0 -0 -0 -0 -0 -0 0 -0 -0 -0 -0 -0 -0 -0 -0 0 0 0 0 0 0 0
3 2 1 2 1 1 1 1 1 1 0 0 0 0 0 0 0 0 0 0 0 0 0 0 -0 -0 0 -0 -0 -0 -0 -0 0 -0 -0 0 0 0 0 0 0 0 0
2 3 2 2 1 1 1 1 1 1 0 0 0 0 0 0 0 0 0 0 0 0 0 0 0 0 -0 -0 -0 -0 -0 -0 0 0 -0 0 0 0 0 0 0 0 0
1 3 3 2 1 1 1 2 1 1 0 0 0 0 0 0 0 0 0 0 0 0 0 0 -0 -0 -0 -0 -0 -0 -0 0 0 0 0 0 0 0 0 0 0 0 0
0 0 2 2 3 1 3 2 1 1 0 0 0 0 0 0 0 0 0 0 0 0 -0 -0 -0 -0 -0 -0 -0 -0 0 0 0 0 0 0 0 0 0 0 0 0 0
-0 0 0 0 0 0 2 2 1 1 0 0 0 0 0 0 0 0 0 0 0 -0 -0 -0 -0 -0 -0 -0 0 0 0 0 0 0 0 0 0 0 0 0 0 0 0
-0 0 0 0 0 0 1 2 2 1 0 0 0 0 0 0 0 0 0 0 0 -0 -0 0 0 0 -0 0 0 0 0 0 0 0 0 0 0 0 0 0 0 0 0
-0 -0 0 0 0 0 -0 2 1 1 0 0 0 0 0 0 0 0 0 0 0 0 0 0 0 0 0 0 0 0 0 0 0 0 0 0 0 0 0 0 0 0 0
-0 -0 0 0 0 0 0 1 1 1 0 0 0 0 0 0 0 0 0 0 0 0 0 0 0 0 0 0 0 0 0 0 0 0 0 0 0 0 0 0 0 0 0
-0 -0 -0 0 0 0 0 0 0 0 0 0 0 0 0 0 0 0 0 0 0 0 0 0 0 0 0 0 0 0 0 0 0 0 0 0 0 0 0 0 0 0 0
-0 -0 -0 -0 0 0 0 0 0 0 0 0 0 0 0 0 0 0 0 0 0 0 0 0 0 0 0 0 0 0 0 0 0 0 0 0 0 0 0 0 0 0 0
-0 -0 -0 0 0 0 0 0 0 0 0 0 0 0 0 0 0 0 0 0 0 0 0 0 0 0 0 0 0 0 0 0 0 0 0 0 0 0 0 0 0 0 0
-0 -0 -0 0 0 0 0 0 0 0 0 0 0 0 0 0 0 0 0 0 0 0 0 0 0 0 0 0 0 0 0 0 0 0 0 0 0 0 0 0 0 0 0
-0 -0 0 0 0 1 0 0 0 0 0 0 0 0 0 0 0 0 0 0 0 0 0 0 0 0 0 0 0 0 0 0 0 0 0 0 0 0 0 0 0 0 0
0 0 0 0 0 0 0 0 0 0 0 0 0 0 0 0 0 0 0 0 0 0 0 0 0 0 0 0 0 0 0 0 0 0 0 0 0 0 0 0 0 0 0
0 0 0 0 0 0 0 0 0 0 0 0 0 0 0 0 0 0 0 0 0 0 0 0 0 0 0 0 0 0 0 0 0 0 0 0 0 0 0 0 0 0 0
0 0 0 0 0 0 0 0 0 1 0 1 0 0 0 0 0 0 0 0 0 0 0 0 0 0 0 0 0 0 0 0 0 0 0 -0 0 0 0 0 0 0 0
Wind_Speed_500mb
33 36 60 61 57 46 44 44 43 38 33 30 35 35 34 32 32 32 35 35 37 35 43 42 39 46 43 38 39 41 42 40 39 39 37 32 30 30 27 27 29 28 26
35 39 60 62 57 51 47 47 44 39 34 32 36 35 34 36 34 34 33 36 35 41 47 40 34 38 38 40 40 41 41 40 36 32 30 28 26 27 28 30 32 34 32
29 37 60 62 58 54 51 49 46 41 36 33 37 35 36 37 33 34 32 34 35 45 39 37 35 38 38 39 40 42 44 46 47 32 25 29 31 31 33 33 34 33 34
31 30 59 61 59 56 53 49 47 43 37 35 36 38 38 35 33 36 32 31 38 43 37 38 35 36 38 40 42 43 45 39 36 28 18 30 34 34 34 35 35 33 35
38 30 58 60 59 56 53 50 47 44 39 37 37 41 37 36 36 37 34 32 45 40 37 38 37 38 40 41 40 40 40 40 31 20 22 28 33 34 33 32 32 33 34
43 40 52 59 58 56 52 50 47 45 42 40 41 41 36 37 41 40 43 39 39 41 37 36 39 37 38 37 37 38 37 33 25 25 27 30 32 31 30 30 31 32 31
52 51 35 58 58 55 53 50 48 47 46 45 44 42 43 40 41 50 45 41 38 39 36 35 35 35 35 34 37 38 40 27 17 23 28 29 31 30 30 30 30 31 30
55 48 35 52 57 58 54 51 49 49 50 49 49 48 46 44 45 52 45 43 38 37 37 36 35 35 35 35 35 35 37 24 18 24 27 29 30 29 29 30 29 29 29
50 44 40 51 55 57 54 52 51 52 54 53 52 51 48 46 46 53 45 46 41 40 39 38 37 36 34 34 33 31 33 24 21 24 25 28 28 28 28 28 28 28 27
41 45 47 56 59 59 56 53 53 53 57 56 55 56 47 45 46 52 47 46 44 42 41 39 37 35 33 32 31 31 31 24 14 16 22 25 26 26 26 27 27 26 25
55 52 53 54 65 64 59 56 55 57 57 58 59 57 51 50 51 50 48 47 46 43 42 40 36 33 31 31 32 31 31 20 4 17 18 21 22 22 23 24 25 24 23
60 62 56 58 66 71 60 61 66 63 63 64 64 57 54 56 55 53 49 45 47 44 42 39 34 30 27 27 27 26 24 13 3 12 13 16 17 17 18 19 21 22 21
62 71 70 64 64 68 61 69 72 70 70 68 61 58 57 61 55 53 51 47 49 44 43 38 34 28 25 21 21 24 15 7 3 10 8 9 11 12 13 14 16 19 18
48 63 74 66 68 66 68 68 76 77 77 75 67 56 54 65 59 56 54 51 48 43 39 36 32 25 22 8 14 19 12 13 8 4 4 4 5 6 7 8 10 13 15
52 43 62 68 79 56 74 74 78 80 79 78 65 59 53 64 62 56 57 54 48 41 35 35 24 18 24 20 16 18 19 11 11 7 3 2 2 0 1 3 4 5 10
47 41 58 60 57 105 62 79 83 84 81 74 62 61 56 59 65 60 53 55 46 29 27 28 23 22 22 18 15 14 14 18 14 11 11 8 7 7 5 4 2 2 4
53 49 26 50 76 77 80 84 85 87 80 68 64 62 62 62 64 61 60 51 46 36 32 33 29 25 22 19 17 12 9 5 9 13 15 16 11 11 11 9 8 7 6
66 52 64 48 74 74 61 70 79 78 72 64 70 73 75 68 56 50 57 44 41 44 35 34 32 26 22 22 17 13 16 19 18 8 10 17 15 15 10 12 13 13 12
84 64 62 57 91 88 58 63 65 75 80 68 75 79 77 66 50 49 55 53 49 49 42 37 33 29 26 19 20 18 15 15 12 15 14 12 18 21 17 12 15 18 18
75 54 57 48 106 109 79 71 67 69 72 70 66 61 80 61 65 61 61 59 52 48 42 36 31 26 17 15 14 13 13 10 11 12 13 11 14 22 19 23 23 20 21
63 47 49 56 84 98 92 86 77 75 67 68 74 62 78 69 73 69 60 58 53 48 41 35 31 31 29 23 17 9 5 7 8 11 16 18 20 23 24 22 25 25 23
53 50 39 57 95 83 101 97 92 87 76 74 81 77 73 76 72 71 63 57 51 43 38 33 31 28 25 19 8 5 5 11 12 15 15 13 16 22 22 24 25 30 33
53 50 50 74 71 98 107 102 86 82 75 74 70 79 80 71 72 67 59 53 49 43 41 35 31 27 21 18 18 10 8 5 1 13 13 17 17 17 21 24 28 32 31
50 41 40 69 64 92 88 95 87 89 82 76 78 72 76 66 68 64 56 53 49 46 38 36 31 27 26 23 18 18 16 13 10 8 15 21 21 17 11 18 19 20 20
47 47 53 44 75 61 79 82 86 83 78 76 78 71 77 68 64 66 59 56 51 48 40 37 36 31 27 21 18 15 13 23 21 20 24 25 25 19 16 18 17 19 18
45 52 60 62 56 71 63 81 89 87 82 82 80 82 76 72 66 65 63 51 48 45 43 35 32 29 24 20 16 21 24 20 20 22 23 22 17 19 16 18 25 25 24
Wind_Direction_500mb
200 181 175 172 173 170 167 166 165 162 161 157 154 151 147 139 131 123 118 108 105 113 115 112 117 125 122 117 113 108 105 101 97 96 97 92 83 75 71 75 78 77 77
203 178 177 176 176 173 170 169 169 166 162 161 158 155 151 144 135 129 131 117 116 116 113 108 112 124 121 117 114 111 106 97 89 91 92 87 78 76 78 76 75 76 74
206 181 178 180 180 176 174 172 172 169 168 166 163 158 155 149 142 135 137 126 133 127 117 120 124 122 123 120 115 109 101 90 77 58 72 80 82 79 77 75 75 73 73
221 199 182 182 184 181 178 176 175 173 172 171 171 164 160 156 148 140 141 139 137 133 128 126 125 125 123 121 117 113 103 90 93 90 72 82 83 79 77 75 74 72 74
212 215 190 183 185 185 182 180 176 177 178 175 176 168 164 162 154 144 148 144 146 144 138 136 136 131 123 122 121 118 114 116 122 140 96 87 84 80 76 74 75 71 72
203 206 202 185 186 189 187 184 180 181 180 179 179 173 171 164 158 154 152 149 147 150 145 139 131 124 123 120 119 116 106 89 93 104 93 89 85 83 79 76 72 72 70
191 201 207 190 188 191 192 191 187 184 183 182 183 180 169 165 163 157 155 154 154 152 149 140 133 129 125 122 119 115 105 102 108 98 95 92 88 84 81 78 75 73 71
197 200 199 198 193 192 194 196 192 188 186 185 183 179 170 172 165 161 163 164 157 153 150 144 139 133 128 125 123 119 111 119 108 98 99 94 89 85 79 75 73 71 69
209 198 190 199 198 193 195 199 195 191 188 187 182 178 172 175 166 166 169 169 162 156 151 145 140 135 131 127 124 121 113 92 96 106 99 94 90 84 79 76 74 71 69
208 202 191 194 204 196 196 198 196 191 188 185 183 178 176 173 165 168 170 167 161 157 151 146 142 138 134 128 123 116 106 101 118 99 101 97 91 85 78 76 74 69 66
208 202 196 199 206 202 197 194 192 189 186 184 182 180 177 171 165 170 172 167 162 158 154 149 145 140 137 132 124 112 102 99 85 109 108 101 94 85 77 75 70 65 65
217 214 204 208 209 203 197 188 190 187 188 186 180 182 178 172 165 172 171 168 163 160 155 150 145 139 133 129 119 110 111 132 153 115 117 105 95 86 78 75 68 63 64
230 223 208 209 198 197 199 187 189 187 187 184 181 186 176 167 169 171 171 165 165 164 158 153 146 136 127 125 106 100 122 117 212 114 117 108 99 89 79 72 67 58 58
224 223 226 211 187 193 199 195 190 185 187 183 186 183 172 163 173 173 176 174 169 168 165 157 149 139 125 182 117 147 165 152 260 131 135 130 106 94 83 74 69 54 51
251 253 225 228 222 227 200 195 196 189 188 185 184 167 179 170 175 180 179 175 172 170 171 160 153 164 155 144 166 184 180 183 208 259 247 261 253 234 68 67 69 46 42
287 273 220 231 222 237 204 198 193 190 189 184 182 162 184 180 180 181 181 177 164 158 176 157 169 189 157 178 190 207 194 190 219 243 270 278 269 272 274 292 280 328 4
284 278 254 230 223 230 240 197 189 186 190 184 182 174 177 183 184 187 181 173 155 173 191 183 182 181 177 168 201 225 213 231 236 233 256 279 285 284 278 282 288 293 291
263 285 278 250 224 221 254 187 189 191 180 181 187 180 180 175 186 193 179 168 173 182 190 176 185 174 187 198 188 215 210 214 241 260 266 267 280 284 283 292 293 289 285
243 260 280 269 214 205 194 180 188 194 185 184 191 190 183 172 179 176 174 180 183 186 186 186 185 187 185 201 197 220 236 241 245 217 233 256 258 275 274 280 286 287 288
236 255 275 277 195 194 173 180 173 174 189 183 186 196 188 181 181 176 179 184 191 186 183 185 187 184 198 209 214 226 246 256 260 256 255 258 253 271 263 256 267 278 278
235 248 252 246 173 167 176 185 182 184 179 182 179 183 171 184 188 185 185 190 189 186 188 190 190 193 196 202 218 239 296 271 303 280 270 245 246 252 262 250 259 279 275
231 243 246 225 203 191 176 178 183 183 181 184 185 180 179 187 188 189 187 189 186 183 188 193 197 191 192 206 195 209 183 226 260 272 284 285 288 272 277 276 258 268 277
225 238 242 211 209 186 184 184 180 180 181 182 181 188 186 191 188 182 185 187 184 187 195 191 193 192 191 209 216 179 178 144 241 275 285 286 290 278 280 280 273 270 274
217 229 220 207 232 187 189 186 180 172 176 182 182 185 181 188 187 181 184 189 191 192 196 190 196 195 193 206 226 219 226 263 289 245 270 292 289 289 295 294 293 278 279
212 192 196 193 195 166 189 189 182 179 183 184 183 182 180 187 190 186 191 194 193 195 197 194 201 205 205 216 229 231 257 271 264 249 280 283 290 286 293 301 306 302 284
188 178 184 184 208 221 213 196 189 184 183 181 184 184 183 187 187 189 193 194 193 192 197 199 206 214 215 216 247 264 293 272 275 273 265 286 315 309 309 290 293 287 269
Wind_Speed_850mb
33 36 60 61 57 46 44 44 43 38 33 30 35 35 34 32 32 32 35 35 37 35 43 42 39 46 43 38 39 41 42 40 39 39 37 32 30 30 27 27 29 28 26
35 39 60 62 57 51 47 47 44 39 34 32 36 35 34 36 34 34 33 36 35 41 47 40 34 38 38 40 40 41 41 40 36 32 30 28 26 27 28 30 32 34 32
29 37 60 62 58 54 51 49 46 41 36 33 37 35 36 37 33 34 32 34 35 45 39 37 35 38 38 39 40 42 44 46 47 32 25 29 31 31 33 33 34 33 34
31 30 59 61 59 56 53 49 47 43 37 35 36 38 38 35 33 36 32 31 38 43 37 38 35 36 38 40 42 43 45 39 36 28 18 30 34 34 34 35 35 33 35
38 30 58 60 59 56 53 50 47 44 39 37 37 41 37 36 36 37 34 32 45 40 37 38 37 38 40 41 40 40 40 40 31 20 22 28 33 34 33 32 32 33 34
43 40 52 59 58 56 52 50 47 45 42 40 41 41 36 37 41 40 43 39 39 41 37 36 39 37 38 37 37 38 37 33 25 25 27 30 32 31 30 30 31 32 31
52 51 35 58 58 55 53 50 48 47 46 45 44 42 43 40 41 50 45 41 38 39 36 35 35 35 35 34 37 38 40 27 17 23 28 29 31 30 30 30 30 31 30
55 48 35 52 57 58 54 51 49 49 50 49 49 48 46 44 45 52 45 43 38 37 37 36 35 35 35 35 35 35 37 24 18 24 27 29 30 29 29 30 29 29 29
50 44 40 51 55 57 54 52 51 52 54 53 52 51 48 46 46 53 45 46 41 40 39 38 37 36 34 34 33 31 33 24 21 24 25 28 28 28 28 28 28 28 27
41 45 47 56 59 59 56 53 53 53 57 56 55 56 47 45 46 52 47 46 44 42 41 39 37 35 33 32 31 31 31 24 14 16 22 25 26 26 26 27 27 26 25
55 52 53 54 65 64 59 56 55 57 57 58 59 57 51 50 51 50 48 47 46 43 42 40 36 33 31 31 32 31 31 20 4 17 18 21 22 22 23 24 25 24 23
60 62 56 58 66 71 60 61 66 63 63 64 64 57 54 56 55 53 49 45 47 44 42 39 34 30 27 27 27 26 24 13 3 12 13 16 17 17 18 19 21 22 21
62 71 70 64 64 68 61 69 72 70 70 68 61 58 57 61 55 53 51 47 49 44 43 38 34 28 25 21 21 24 15 7 3 10 8 9 11 12 13 14 16 19 18
48 63 74 66 68 66 68 68 76 77 77 75 67 56 54 65 59 56 54 51 48 43 39 36 32 25 22 8 14 19 12 13 8 4 4 4 5 6 7 8 10 13 15
52 43 62 68 79 56 74 74 78 80 79 78 65 59 53 64 62 56 57 54 48 41 35 35 24 18 24 20 16 18 19 11 11 7 3 2 2 0 1 3 4 5 10
47 41 58 60 57 105 62 79 83 84 81 74 62 61 56 59 65 60 53 55 46 29 27 28 23 22 22 18 15 14 14 18 14 11 11 8 7 7 5 4 2 2 4
53 49 26 50 76 77 80 84 85 87 80 68 64 62 62 62 64 61 60 51 46 36 32 33 29 25 22 19 17 12 9 5 9 13 15 16 11 11 11 9 8 7 6
66 52 64 48 74 74 61 70 79 78 72 64 70 73 75 68 56 50 57 44 41 44 35 34 32 26 22 22 17 13 16 19 18 8 10 17 15 15 10 12 13 13 12
84 64 62 57 91 88 58 63 65 75 80 68 75 79 77 66 50 49 55 53 49 49 42 37 33 29 26 19 20 18 15 15 12 15 14 12 18 21 17 12 15 18 18
75 54 57 48 106 109 79 71 67 69 72 70 66 61 80 61 65 61 61 59 52 48 42 36 31 26 17 15 14 13 13 10 11 12 13 11 14 22 19 23 23 20 21
63 47 49 56 84 98 92 86 77 75 67 68 74 62 78 69 73 69 60 58 53 48 41 35 31 31 29 23 17 9 5 7 8 11 16 18 20 23 24 22 25 25 23
53 50 39 57 95 83 101 97 92 87 76 74 81 77 73 76 72 71 63 57 51 43 38 33 31 28 25 19 8 5 5 11 12 15 15 13 16 22 22 24 25 30 33
53 50 50 74 71 98 107 102 86 82 75 74 70 79 80 71 72 67 59 53 49 43 41 35 31 27 21 18 18 10 8 5 1 13 13 17 17 17 21 24 28 32 31
50 41 40 69 64 92 88 95 87 89 82 76 78 72 76 66 68 64 56 53 49 46 38 36 31 27 26 23 18 18 16 13 10 8 15 21 21 17 11 18 19 20 20
47 47 53 44 75 61 79 82 86 83 78 76 78 71 77 68 64 66 59 56 51 48 40 37 36 31 27 21 18 15 13 23 21 20 24 25 25 19 16 18 17 19 18
45 52 60 62 56 71 63 81 89 87 82 82 80 82 76 72 66 65 63 51 48 45 43 35 32 29 24 20 16 21 24 20 20 22 23 22 17 19 16 18 25 25 24
Wind_Direction_850mb
200 181 175 172 173 170 167 166 165 162 161 157 154 151 147 139 131 123 118 108 105 113 115 112 117 125 122 117 113 108 105 101 97 96 97 92 83 75 71 75 78 77 77
203 178 177 176 176 173 170 169 169 166 162 161 158 155 151 144 135 129 131 117 116 116 113 108 112 124 121 117 114 111 106 97 89 91 92 87 78 76 78 76 75 76 74
206 181 178 180 180 176 174 172 172 169 168 166 163 158 155 149 142 135 137 126 133 127 117 120 124 122 123 120 115 109 101 90 77 58 72 80 82 79 77 75 75 73 73
221 199 182 182 184 181 178 176 175 173 172 171 171 164 160 156 148 140 141 139 137 133 128 126 125 125 123 121 117 113 103 90 93 90 72 82 83 79 77 75 74 72 74
212 215 190 183 185 185 182 180 176 177 178 175 176 168 164 162 154 144 148 144 146 144 138 136 136 131 123 122 121 118 114 116 122 140 96 87 84 80 76 74 75 71 72
203 206 202 185 186 189 187 184 180 181 180 179 179 173 171 164 158 154 152 149 147 150 145 139 131 124 123 120 119 116 106 89 93 104 93 89 85 83 79 76 72 72 70
191 201 207 190 188 191 192 191 187 184 183 182 183 180 169 165 163 157 155 154 154 152 149 140 133 129 125 122 119 115 105 102 108 98 95 92 88 84 81 78 75 73 71
197 200 199 198 193 192 194 196 192 188 186 185 183 179 170 172 165 161 163 164 157 153 150 144 139 133 128 125 123 119 111 119 108 98 99 94 89 85 79 75 73 71 69
209 198 190 199 198 193 195 199 195 191 188 187 182 178 172 175 166 166 169 169 162 156 151 145 140 135 131 127 124 121 113 92 96 106 99 94 90 84 79 76 74 71 69
208 202 191 194 204 196 196 198 196 191 188 185 183 178 176 173 165 168 170 167 161 157 151 146 142 138 134 128 123 116 106 101 118 99 101 97 91 85 78 76 74 69 66
208 202 196 199 206 202 197 194 192 189 186 184 182 180 177 171 165 170 172 167 162 158 154 149 145 140 137 132 124 112 102 99 85 109 108 101 94 85 77 75 70 65 65
217 214 204 208 209 203 197 188 190 187 188 186 180 182 178 172 165 172 171 168 163 160 155 150 145 139 133 129 119 110 111 132 153 115 117 105 95 86 78 75 68 63 64
230 223 208 209 198 197 199 187 189 187 187 184 181 186 176 167 169 171 171 165 165 164 158 153 146 136 127 125 106 100 122 117 212 114 117 108 99 89 79 72 67 58 58
224 223 226 211 187 193 199 195 190 185 187 183 186 183 172 163 173 173 176 174 169 168 165 157 149 139 125 182 117 147 165 152 260 131 135 130 106 94 83 74 69 54 51
251 253 225 228 222 227 200 195 196 189 188 185 184 167 179 170 175 180 179 175 172 170 171 160 153 164 155 144 166 184 180 183 208 259 247 261 253 234 68 67 69 46 42
287 273 220 231 222 237 204 198 193 190 189 184 182 162 184 180 180 181 181 177 164 158 176 157 169 189 157 178 190 207 194 190 219 243 270 278 269 272 274 292 280 328 4
284 278 254 230 223 230 240 197 189 186 190 184 182 174 177 183 184 187 181 173 155 173 191 183 182 181 177 168 201 225 213 231 236 233 256 279 285 284 278 282 288 293 291
263 285 278 250 224 221 254 187 189 191 180 181 187 180 180 175 186 193 179 168 173 182 190 176 185 174 187 198 188 215 210 214 241 260 266 267 280 284 283 292 293 289 285
243 260 280 269 214 205 194 180 188 194 185 184 191 190 183 172 179 176 174 180 183 186 186 186 185 187 185 201 197 220 236 241 245 217 233 256 258 275 274 280 286 287 288
236 255 275 277 195 194 173 180 173 174 189 183 186 196 188 181 181 176 179 184 191 186 183 185 187 184 198 209 214 226 246 256 260 256 255 258 253 271 263 256 267 278 278
235 248 252 246 173 167 176 185 182 184 179 182 179 183 171 184 188 185 185 190 189 186 188 190 190 193 196 202 218 239 296 271 303 280 270 245 246 252 262 250 259 279 275
231 243 246 225 203 191 176 178 183 183 181 184 185 180 179 187 188 189 187 189 186 183 188 193 197 191 192 206 195 209 183 226 260 272 284 285 288 272 277 276 258 268 277
225 238 242 211 209 186 184 184 180 180 181 182 181 188 186 191 188 182 185 187 184 187 195 191 193 192 191 209 216 179 178 144 241 275 285 286 290 278 280 280 273 270 274
217 229 220 207 232 187 189 186 180 172 176 182 182 185 181 188 187 181 184 189 191 192 196 190 196 195 193 206 226 219 226 263 289 245 270 292 289 289 295 294 293 278 279
212 192 196 193 195 166 189 189 182 179 183 184 183 182 180 187 190 186 191 194 193 195 197 194 201 205 205 216 229 231 257 271 264 249 280 283 290 286 293 301 306 302 284
188 178 184 184 208 221 213 196 189 184 183 181 184 184 183 187 187 189 193 194 193 192 197 199 206 214 215 216 247 264 293 272 275 273 265 286 315 309 309 290 293 287 269